Grand Prairie, TX

12:28 PM CDT on September 19, 2017 (GMT -0500)
Grand Prairie Municipal

Weather History for KGPM - December, 2013

Change the Weather History Date:

Thursday, December 5, 2013

  Actual Average (KRBD) Record (KRBD)
Temperature  
Mean Temperature 39 °F -  
Max Temperature 48 °F 57 °F 79 °F (2014)
Min Temperature 30 °F 40 °F 28 °F (2005)
Degree Days  
Heating Degree Days 26    
Moisture  
Dew Point 27 °F    
Average Humidity 73    
Maximum Humidity 100    
Minimum Humidity 52    
Precipitation  
Precipitation 0.06 in - - ()
Sea Level Pressure  
Sea Level Pressure 30.09 in    
Wind  
Wind Speed 14 mph (North)    
Max Wind Speed 21 mph    
Max Gust Speed 28 mph    
Visibility 8 miles    
Events      
Averages and records for this station are not official NWS values.
T = Trace of Precipitation, MM = Missing Value Source: NWS Daily Summary

Daily Weather History Graph

Daily Weather History Graph

Search for Another Location

Airport or City:

Trip Planner

Search our weather history database for the weather conditions in past years. The results will help you decide how hot, cold, wet, or windy it might be!

Date:

Astronomy

Dec. 05, 2013 Rise Set
Actual Time 7:15 AM CST 5:21 PM CST
Civil Twilight 6:48 AM CST 5:48 PM CST
Nautical Twilight 6:18 AM CST 6:19 PM CST
Astronomical Twilight 5:48 AM CST 6:49 PM CST
Moon 9:41 AM CST (12/5) 8:38 PM CST (12/5)
Length of Visible Light 11h 00m
Length of Day
10h 05m
Waxing Crescent, 11% of the Moon is Illuminated
Dec 5
Waxing Crescent
Dec 9
First Quarter
Dec 17
Full
Dec 25
Last Quarter
Jan 1
New

Hourly Weather History & Observations

Time (CST) Temp. Windchill Dew Point Humidity Pressure Visibility Wind Dir Wind Speed Gust Speed Precip Events Conditions
12:15 AM 48.2 °F - 33.8 °F 58% 29.93 in 10.0 mi North 16.1 mph 21.9 mph N/A   Mostly Cloudy
12:35 AM 46.4 °F 39.5 °F 33.8 °F 62% 29.92 in 10.0 mi North 17.3 mph 20.7 mph N/A   Overcast
12:55 AM 46.4 °F 39.8 °F 33.8 °F 62% 29.92 in 10.0 mi North 16.1 mph 20.7 mph N/A   Mostly Cloudy
1:15 AM 44.6 °F 36.4 °F 32.0 °F 61% 29.92 in 10.0 mi North 20.7 mph 25.3 mph N/A   Mostly Cloudy
1:35 AM 44.6 °F 37.4 °F 32.0 °F 61% 29.95 in 10.0 mi North 16.1 mph 24.2 mph N/A   Mostly Cloudy
1:55 AM 44.6 °F 37.8 °F 32.0 °F 61% 29.96 in 10.0 mi North 15.0 mph 23.0 mph N/A   Overcast
2:15 AM 42.8 °F 34.5 °F 32.0 °F 66% 29.95 in 10.0 mi North 18.4 mph 27.6 mph N/A   Overcast
2:35 AM 41.0 °F 34.3 °F 30.2 °F 65% 29.98 in 10.0 mi NNW 11.5 mph 21.9 mph N/A   Overcast
2:55 AM 41.0 °F 34.7 °F 28.4 °F 61% 30.00 in 10.0 mi NNW 10.4 mph 26.5 mph N/A   Overcast
3:15 AM 41.0 °F 34.7 °F 28.4 °F 61% 30.01 in 10.0 mi North 10.4 mph 19.6 mph N/A   Overcast
3:35 AM 39.2 °F 30.8 °F 28.4 °F 65% 30.02 in 10.0 mi North 15.0 mph 27.6 mph N/A   Overcast
3:55 AM 37.4 °F 27.8 °F 26.6 °F 65% 30.03 in 10.0 mi North 17.3 mph 21.9 mph N/A   Mostly Cloudy
4:15 AM 37.4 °F 30.8 °F 28.4 °F 70% 30.04 in 10.0 mi North 9.2 mph 25.3 mph N/A   Mostly Cloudy
4:35 AM 35.6 °F 26.2 °F 28.4 °F 75% 30.06 in 10.0 mi North 15.0 mph 26.5 mph N/A   Mostly Cloudy
4:55 AM 35.6 °F 28.0 °F 28.4 °F 75% 30.08 in 10.0 mi NNW 10.4 mph 19.6 mph N/A   Mostly Cloudy
5:15 AM 35.6 °F 27.5 °F 28.4 °F 75% 30.08 in 10.0 mi NNW 11.5 mph 23.0 mph N/A   Mostly Cloudy
5:35 AM 35.6 °F 27.5 °F 26.6 °F 70% 30.09 in 10.0 mi NNW 11.5 mph 19.6 mph N/A   Mostly Cloudy
5:55 AM 35.6 °F 24.8 °F 24.8 °F 65% 30.08 in 10.0 mi North 19.6 mph 24.2 mph N/A   Overcast
7:50 AM 35.6 °F 25.9 °F 23.0 °F 60% 30.13 in 10.0 mi North 16.1 mph 25.3 mph N/A   Mostly Cloudy
8:50 AM 35.6 °F 26.6 °F 19.4 °F 52% 30.13 in 10.0 mi North 13.8 mph 25.3 mph N/A   Overcast
9:50 AM 35.6 °F 25.9 °F 21.2 °F 56% 30.16 in 10.0 mi North 16.1 mph 20.7 mph N/A   Mostly Cloudy
10:50 AM 35.6 °F 25.9 °F 19.4 °F 52% 30.18 in 10.0 mi North 16.1 mph 24.2 mph N/A   Overcast
11:50 AM 35.6 °F 29.2 °F 19.4 °F 52% 30.18 in 10.0 mi NNW 8.1 mph 16.1 mph N/A   Overcast
12:50 PM 33.8 °F 25.3 °F 19.4 °F 56% 30.13 in 10.0 mi NNW 11.5 mph 23.0 mph N/A   Overcast
1:50 PM 33.8 °F 25.3 °F 19.4 °F 56% 30.13 in 10.0 mi NNW 11.5 mph 25.3 mph N/A   Overcast
2:50 PM 33.8 °F 24.3 °F 19.4 °F 56% 30.14 in 10.0 mi NNW 13.8 mph 25.3 mph N/A   Overcast
3:50 PM 30.2 °F 20.2 °F 24.8 °F 80% 30.14 in 5.0 mi North 12.7 mph 21.9 mph N/A   Overcast
4:50 PM 30.2 °F 20.8 °F 26.6 °F 86% 30.16 in 10.0 mi NNW 11.5 mph - N/A   Overcast
5:50 PM 30.2 °F 21.9 °F 26.6 °F 86% 30.16 in 5.0 mi North 9.2 mph 17.3 mph N/A   Unknown
8:15 PM 30.2 °F 19.8 °F 26.6 °F 86% 30.18 in 10.0 mi North 13.8 mph 17.3 mph N/A   Overcast
8:35 PM 30.2 °F 22.6 °F 28.4 °F 93% 30.18 in 10.0 mi North 8.1 mph 17.3 mph N/A   Mostly Cloudy
8:55 PM 30.2 °F 22.6 °F 28.4 °F 93% 30.19 in 10.0 mi North 8.1 mph 18.4 mph N/A   Mostly Cloudy
9:15 PM 30.2 °F 23.4 °F 28.4 °F 93% 30.20 in 4.0 mi North 6.9 mph - N/A   Overcast
9:35 PM 30.2 °F 21.3 °F 28.4 °F 93% 30.17 in 4.0 mi North 10.4 mph - N/A   Overcast
9:55 PM 30.2 °F 21.9 °F 28.4 °F 93% 30.18 in 7.0 mi North 9.2 mph - N/A   Overcast
10:15 PM 32.0 °F 25.6 °F 30.2 °F 93% 30.20 in 5.0 mi North 6.9 mph - N/A   Overcast
10:35 PM 32.0 °F 25.6 °F 30.2 °F 93% 30.19 in 1.8 mi North 6.9 mph - 0.02 in   Overcast
10:55 PM 32.0 °F 26.4 °F 30.2 °F 93% 30.20 in 4.0 mi NNW 5.8 mph - 0.04 in   Overcast
11:15 PM 32.0 °F 24.2 °F 30.2 °F 93% 30.16 in 2.0 mi NNE 9.2 mph - N/A   Overcast
11:35 PM 32.0 °F 24.2 °F 30.2 °F 93% 30.17 in 3.0 mi North 9.2 mph - N/A   Overcast
11:55 PM 32.0 °F 25.6 °F 32.0 °F 100% 30.15 in 2.5 mi North 6.9 mph - 0.02 in   Overcast